IT9IRS-4 Weather Reports


time (UTC)temp
C
wind
direction
speed
KPH
gust
KPH
rain 1hr
cm
rain 24hr
cm
rain mn
cm
humidity
%
barometer
mb
20260508063003 20 235 14.5 17.7 0.00 0.00 0.00 53 1012.1
20260508062504 20 220 14.5 17.7 0.00 0.00 0.00 54 1012.5
20260508062216 20 212 14.5 17.7 0.00 0.00 0.00 54 1012.2
20260508061504 20 222 12.9 17.7 0.00 0.00 0.00 55 1012.4
20260508061003 20 228 9.7 14.5 0.00 0.00 0.00 56 1012.3
20260508060715 20 225 9.7 14.5 0.00 0.00 0.00 56 1012.4
20260508060004 20 210 12.9 14.5 0.00 0.00 0.00 56 1012.1
20260508055503 19 218 14.5 19.3 0.00 0.00 0.00 56 1011.9
20260508055214 19 209 16.1 19.3 0.00 0.00 0.00 55 1012.1
20260508054504 19 194 16.1 24.1 0.00 0.00 0.00 55 1012.0
20260508054004 19 189 16.1 24.1 0.00 0.00 0.00 56 1011.8
20260508053503 19 203 14.5 24.1 0.00 0.00 0.00 56 1011.7
20260508053004 19 205 12.9 19.3 0.00 0.00 0.00 57 1011.9
20260508052504 19 200 12.9 19.3 0.00 0.00 0.00 56 1011.5
20260508052217 19 233 11.3 14.5 0.00 0.00 0.00 57 1011.5
20260508051503 19 234 9.7 12.9 0.00 0.00 0.00 58 1011.6
20260508051003 18 227 9.7 12.9 0.00 0.00 0.00 58 1011.7
20260508050503 18 217 9.7 12.9 0.00 0.00 0.00 60 1011.6
20260508050214 18 216 11.3 12.9 0.00 0.00 0.00 60 1011.5
20260508045503 18 215 9.7 12.9 0.00 0.00 0.00 60 1011.5
20260508045004 18 265 4.8 12.9 0.00 0.00 0.00 60 1011.7
20260508044713 18 291 4.8 12.9 0.00 0.00 0.00 60 1011.6
20260508044006 18 328 4.8 9.7 0.00 0.00 0.00 60 1011.4
20260508043503 18 8 4.8 4.8 0.00 0.00 0.00 60 1011.4
20260508043003 18 27 4.8 8.0 0.00 0.00 0.00 61 1011.5
20260508042715 18 6 6.4 12.9 0.00 0.00 0.00 61 1011.4
20260508042003 18 251 11.3 14.5 0.00 0.00 0.00 60 1011.3
20260508041504 18 207 14.5 19.3 0.00 0.00 0.00 60 1011.2
20260508041004 18 196 14.5 19.3 0.00 0.00 0.00 60 1010.9
20260508040716 18 188 14.5 19.3 0.00 0.00 0.00 61 1010.9
20260508040004 18 199 17.7 19.3 0.00 0.00 0.00 61 1010.8
20260508035503 18 207 17.7 24.1 0.00 0.00 0.00 61 1010.7
20260508035004 18 204 17.7 24.1 0.00 0.00 0.00 61 1010.8
20260508034503 18 205 17.7 19.3 0.00 0.00 0.00 62 1010.8
20260508034004 18 206 16.1 19.3 0.00 0.00 0.00 62 1010.9
20260508033714 18 222 14.5 19.3 0.00 0.00 0.00 61 1010.8
20260508033003 18 234 14.5 24.1 0.00 0.00 0.00 61 1010.6
20260508032503 18 232 17.7 24.1 0.00 0.00 0.00 62 1010.6
20260508032003 18 209 19.3 24.1 0.00 0.00 0.00 62 1010.6
20260508031503 18 214 19.3 25.7 0.00 0.00 0.00 62 1010.3
20260508031004 18 229 17.7 25.7 0.00 0.00 0.00 62 1010.2
20260508030504 18 218 16.1 17.7 0.00 0.00 0.00 62 1010.4
20260508030004 18 200 14.5 17.7 0.00 0.00 0.00 62 1010.4
20260508025504 18 197 12.9 17.7 0.00 0.00 0.00 62 1010.2
20260508025216 18 203 11.3 16.1 0.00 0.00 0.00 62 1010.3
20260508024504 18 210 11.3 14.5 0.00 0.00 0.00 62 1010.3
20260508024003 18 216 12.9 14.5 0.00 0.00 0.00 63 1010.1
20260508023503 18 215 11.3 14.5 0.00 0.00 0.00 63 1010.1
20260508023003 18 199 9.7 11.3 0.00 0.00 0.00 63 1010.4
20260508022504 18 200 9.7 11.3 0.00 0.00 0.00 63 1010.1
20260508022003 18 209 11.3 14.5 0.00 0.00 0.00 63 1010.2
20260508021503 18 186 11.3 14.5 0.00 0.00 0.00 63 1010.2
20260508021003 18 168 8.0 11.3 0.00 0.00 0.00 63 1009.9
20260508020503 18 175 8.0 9.7 0.00 0.00 0.00 64 1010.0
20260508020005 18 176 9.7 11.3 0.00 0.00 0.00 64 1010.0
20260508015503 18 167 9.7 11.3 0.00 0.00 0.00 64 1010.3
20260508015006 18 190 8.0 9.7 0.00 0.00 0.00 64 1010.2
20260508014504 18 209 8.0 11.3 0.00 0.00 0.00 64 1009.9
20260508014003 18 208 9.7 12.9 0.00 0.00 0.00 64 1010.2
20260508013503 18 215 11.3 14.5 0.00 0.00 0.00 64 1010.4
20260508013213 18 221 11.3 14.5 0.00 0.00 0.00 64 1010.5
20260508012504 18 212 12.9 16.1 0.00 0.00 0.00 64 1010.3
20260508012003 18 204 14.5 17.7 0.00 0.00 0.00 63 1010.1
20260508011717 18 195 14.5 17.7 0.00 0.00 0.00 63 1010.1
20260508011215 18 217 14.5 17.7 0.00 0.00 0.00 63 1010.2
20260508010503 18 209 14.5 17.7 0.00 0.00 0.00 64 1009.8
20260508010217 18 199 14.5 17.7 0.00 0.00 0.00 64 1009.8
20260508005504 18 181 16.1 19.3 0.00 0.00 0.00 63 1009.9
20260508005003 18 188 16.1 19.3 0.00 0.00 0.00 63 1009.9
20260508004504 18 189 14.5 17.7 0.00 0.00 0.00 63 1010.0
20260508004213 18 186 14.5 17.7 0.00 0.00 0.00 64 1010.0
20260508003716 18 188 16.1 19.3 0.00 0.00 0.00 64 1010.0
20260508003003 18 186 17.7 25.7 0.00 0.00 0.00 64 1010.2
20260508002503 18 184 17.7 25.7 0.00 0.00 0.00 64 1010.1
20260508002004 18 192 17.7 24.1 0.00 0.00 0.00 64 1010.1
20260508001503 18 183 19.3 24.1 0.00 0.00 0.00 64 1010.1
20260508001004 18 151 20.9 24.1 0.00 0.00 0.00 64 1010.1
20260508000503 18 157 20.9 24.1 0.00 0.00 0.00 66 1010.1
20260508000004 18 197 12.9 24.1 0.00 0.00 0.00 66 1010.3
20260507235715 18 211 9.7 20.9 0.00 0.00 0.00 66 1010.5
20260507235004 18 273 8.0 16.1 0.00 0.00 0.00 67 1010.7
20260507234503 18 234 12.9 16.1 0.00 0.00 0.00 67 1010.7
20260507234214 18 206 14.5 19.3 0.00 0.00 0.00 67 1010.8
20260507233717 18 184 16.1 20.9 0.00 0.00 0.00 68 1010.9
20260507233004 18 193 17.7 24.1 0.00 0.00 0.00 69 1011.0
20260507232503 18 208 20.9 30.6 0.00 0.00 0.00 68 1011.2
20260507232216 18 205 20.9 30.6 0.00 0.00 0.00 67 1011.3
20260507231503 18 198 17.7 30.6 0.00 0.00 0.00 65 1011.3
20260507231003 18 186 17.7 25.7 0.00 0.00 0.00 65 1011.4
20260507230714 18 172 16.1 25.7 0.00 0.00 0.00 66 1011.4
20260507230005 18 202 17.7 25.7 0.00 0.00 0.00 66 1011.4
20260507225503 18 201 20.9 25.7 0.00 0.00 0.00 65 1011.6
20260507225003 18 186 19.3 25.7 0.00 0.00 0.00 65 1011.7
20260507224504 18 186 19.3 20.9 0.00 0.00 0.00 66 1011.6
20260507224004 18 199 14.5 20.9 0.00 0.00 0.00 66 1011.7
20260507223504 18 187 17.7 29.0 0.00 0.00 0.00 65 1012.0
20260507223005 18 185 20.9 29.0 0.00 0.00 0.00 62 1011.9
20260507222503 19 192 17.7 24.1 0.00 0.00 0.00 63 1012.0
20260507222004 20 207 14.5 24.1 0.00 0.00 0.00 62 1012.0
20260507221503 20 215 11.3 14.5 0.00 0.00 0.00 60 1012.0
20260507221004 20 219 9.7 11.3 0.00 0.00 0.00 58 1011.8
20260507220503 20 208 11.3 17.7 0.00 0.00 0.00 57 1011.7
20260507220004 20 198 16.1 20.9 0.00 0.00 0.00 57 1011.6
20260507215504 20 215 16.1 20.9 0.00 0.00 0.00 55 1011.7
20260507215003 20 223 16.1 20.9 0.00 0.00 0.00 54 1011.4
20260507214505 20 220 16.1 20.9 0.00 0.00 0.00 53 1011.5
20260507214003 20 209 16.1 20.9 0.00 0.00 0.00 53 1011.3
20260507213503 20 211 12.9 19.3 0.00 0.00 0.00 53 1011.1
20260507213003 20 221 11.3 16.1 0.00 0.00 0.00 52 1010.8
20260507212503 20 197 14.5 16.1 0.00 0.00 0.00 53 1010.7
20260507212217 20 194 14.5 19.3 0.00 0.00 0.00 53 1010.5
20260507211503 20 224 16.1 19.3 0.00 0.00 0.00 53 1010.4
20260507211003 20 207 14.5 19.3 0.00 0.00 0.00 53 1010.5
20260507210503 20 205 14.5 19.3 0.00 0.00 0.00 53 1010.6
20260507210004 20 222 11.3 19.3 0.00 0.00 0.00 53 1010.6
20260507205504 20 217 11.3 16.1 0.00 0.00 0.00 52 1010.8
20260507205003 20 214 12.9 19.3 0.00 0.00 0.00 52 1010.5
20260507204504 20 218 11.3 19.3 0.00 0.00 0.00 51 1010.6
20260507204003 20 233 9.7 12.9 0.00 0.00 0.00 50 1010.7
20260507203713 20 229 9.7 16.1 0.00 0.00 0.00 50 1010.9
20260507203003 20 220 11.3 24.1 0.00 0.00 0.00 49 1011.1
20260507202504 20 250 8.0 14.5 0.00 0.00 0.00 47 1010.8
20260507202004 20 270 8.0 14.5 0.00 0.00 0.00 46 1010.9
20260507201503 20 251 8.0 12.9 0.00 0.00 0.00 46 1011.1
20260507201004 20 231 8.0 12.9 0.00 0.00 0.00 45 1010.9
20260507200716 21 233 8.0 12.9 0.00 0.00 0.00 45 1010.8
20260507200004 21 252 9.7 12.9 0.00 0.00 0.00 44 1011.0
20260507195505 21 256 8.0 9.7 0.00 0.00 0.00 44 1010.8
20260507195003 21 252 9.7 17.7 0.00 0.00 0.00 44 1010.7
20260507194503 21 225 14.5 20.9 0.00 0.00 0.00 44 1010.8
20260507194004 21 217 16.1 20.9 0.00 0.00 0.00 43 1010.7
20260507193504 21 217 14.5 17.7 0.00 0.00 0.00 43 1010.7
20260507193003 21 208 14.5 17.7 0.00 0.00 0.00 43 1010.3
20260507192503 21 218 12.9 17.7 0.00 0.00 0.00 42 1010.4
20260507192005 21 231 11.3 16.1 0.00 0.00 0.00 42 1010.1
20260507191505 21 189 12.9 16.1 0.00 0.00 0.00 43 1010.2
20260507191003 21 197 9.7 14.5 0.00 0.00 0.00 43 1010.1
20260507190504 21 223 9.7 14.5 0.00 0.00 0.00 44 1010.1
20260507190005 21 211 12.9 17.7 0.00 0.00 0.00 44 1010.3
20260507185503 21 226 16.1 25.7 0.00 0.00 0.00 45 1010.2
20260507185003 21 210 19.3 25.7 0.00 0.00 0.00 47 1010.2
20260507184504 21 181 17.7 19.3 0.00 0.00 0.00 49 1010.0
20260507184004 21 176 17.7 19.3 0.00 0.00 0.00 50 1009.9
20260507183504 21 176 17.7 29.0 0.00 0.00 0.00 51 1009.8
20260507183003 21 170 16.1 29.0 0.00 0.00 0.00 56 1009.6
20260507182504 21 177 17.7 25.7 0.00 0.00 0.00 58 1009.7
20260507182003 21 170 22.5 32.2 0.00 0.00 0.00 59 1009.7
20260507181504 21 171 22.5 32.2 0.00 0.00 0.00 59 1009.7
20260507181003 21 204 20.9 32.2 0.00 0.00 0.00 59 1009.8
20260507180504 21 219 19.3 20.9 0.00 0.00 0.00 54 1009.8
20260507180004 21 193 14.5 20.9 0.00 0.00 0.00 54 1009.8
20260507175503 21 135 11.3 16.1 0.00 0.00 0.00 52 1009.7
20260507175217 21 145 9.7 16.1 0.00 0.00 0.00 50 1009.6
20260507174503 21 210 4.8 9.7 0.00 0.00 0.00 41 1009.8
20260507174004 21 257 4.8 6.4 0.00 0.00 0.00 40 1009.6
20260507173503 21 331 4.8 6.4 0.00 0.00 0.00 39 1009.5
20260507173004 22 344 4.8 6.4 0.00 0.00 0.00 38 1009.4
20260507172717 22 337 4.8 6.4 0.00 0.00 0.00 40 1009.4
20260507172003 22 348 4.8 6.4 0.00 0.00 0.00 40 1009.4
20260507171504 22 360 3.2 4.8 0.00 0.00 0.00 40 1009.2
20260507171004 22 360 1.6 4.8 0.00 0.00 0.00 37 1009.4
20260507170503 22 15 1.6 4.8 0.00 0.00 0.00 37 1009.3
20260507170216 22 13 3.2 4.8 0.00 0.00 0.00 37 1009.3
20260507165504 22 255 3.2 4.8 0.00 0.00 0.00 36 1009.2
20260507165003 22 221 3.2 4.8 0.00 0.00 0.00 36 1009.4
20260507164503 22 242 3.2 4.8 0.00 0.00 0.00 35 1009.7
20260507164004 22 39 4.8 8.0 0.00 0.00 0.00 36 1009.5
20260507163504 22 65 6.4 8.0 0.00 0.00 0.00 36 1009.6
20260507163003 22 53 6.4 8.0 0.00 0.00 0.00 36 1009.6
20260507162504 22 52 6.4 8.0 0.00 0.00 0.00 38 1009.7
20260507162004 22 77 8.0 9.7 0.00 0.00 0.00 41 1009.8
20260507161503 22 58 6.4 9.7 0.00 0.00 0.00 41 1009.4
20260507161216 22 61 6.4 9.7 0.00 0.00 0.00 40 1009.3
20260507160504 22 46 9.7 12.9 0.00 0.00 0.00 40 1009.4
20260507160217 22 58 9.7 12.9 0.00 0.00 0.00 40 1009.6
20260507155503 23 42 4.8 12.9 0.00 0.00 0.00 38 1009.4
20260507155004 23 332 4.8 8.0 0.00 0.00 0.00 40 1009.3
20260507154504 22 326 6.4 8.0 0.00 0.00 0.00 39 1009.5
20260507154003 23 324 4.8 6.4 0.00 0.00 0.00 40 1009.2
20260507153504 22 326 6.4 8.0 0.00 0.00 0.00 39 1009.6
20260507153004 22 317 8.0 9.7 0.00 0.00 0.00 36 1009.5
20260507152504 22 311 8.0 12.9 0.00 0.00 0.00 39 1009.5
20260507152003 22 330 9.7 12.9 0.00 0.00 0.00 40 1009.6
20260507151714 22 354 9.7 11.3 0.00 0.00 0.00 41 1009.7
20260507151004 23 10 8.0 12.9 0.00 0.00 0.00 41 1009.5
20260507150504 22 340 9.7 12.9 0.00 0.00 0.00 44 1009.5
20260507150003 22 306 9.7 11.3 0.00 0.00 0.00 46 1009.7
20260507145503 22 320 11.3 14.5 0.00 0.00 0.00 42 1010.0
20260507145004 22 331 11.3 14.5 0.00 0.00 0.00 41 1009.8
20260507144503 22 327 11.3 11.3 0.00 0.00 0.00 41 1009.9
20260507144003 22 310 11.3 14.5 0.00 0.00 0.00 41 1010.1
20260507143503 22 312 12.9 14.5 0.00 0.00 0.00 42 1009.8
20260507143003 22 310 11.3 14.5 0.00 0.00 0.00 41 1009.9
20260507142504 22 302 11.3 16.1 0.00 0.00 0.00 44 1009.9
20260507142004 22 308 11.3 16.1 0.00 0.00 0.00 49 1010.0
20260507141714 22 312 11.3 12.9 0.00 0.00 0.00 45 1010.1
20260507141217 22 312 9.7 9.7 0.00 0.00 0.00 46 1009.9
20260507140715 22 320 9.7 11.3 0.00 0.00 0.00 43 1009.9
20260507140004 22 347 8.0 11.3 0.00 0.00 0.00 43 1010.0
20260507135503 22 350 6.4 11.3 0.00 0.00 0.00 45 1009.8
20260507135214 22 355 6.4 9.7 0.00 0.00 0.00 46 1009.9
20260507134505 22 17 6.4 8.0 0.00 0.00 0.00 50 1009.9
20260507134004 22 37 6.4 8.0 0.00 0.00 0.00 51 1009.9
20260507133504 22 62 6.4 6.4 0.00 0.00 0.00 52 1009.9
20260507133004 21 39 8.0 11.3 0.00 0.00 0.00 54 1010.3
20260507132503 21 16 9.7 11.3 0.00 0.00 0.00 54 1010.1
20260507132004 21 12 8.0 11.3 0.00 0.00 0.00 53 1010.3
20260507131503 22 58 8.0 9.7 0.00 0.00 0.00 52 1010.2
20260507131003 21 70 8.0 9.7 0.00 0.00 0.00 53 1010.4
20260507130503 22 78 9.7 12.9 0.00 0.00 0.00 52 1010.2
20260507130006 22 112 6.4 12.9 0.00 0.00 0.00 50 1010.3
20260507125717 22 313 4.8 9.7 0.00 0.00 0.00 43 1010.4
20260507125215 22 309 6.4 14.5 0.00 0.00 0.00 37 1010.3
20260507124503 22 332 9.7 14.5 0.00 0.00 0.00 34 1010.6
20260507124004 22 357 9.7 16.1 0.00 0.00 0.00 35 1010.3
20260507123504 22 339 9.7 16.1 0.00 0.00 0.00 35 1010.5
20260507123003 22 320 11.3 16.1 0.00 0.00 0.00 37 1010.4
20260507122503 22 326 14.5 19.3 0.00 0.00 0.00 36 1010.3
20260507122004 22 324 16.1 19.3 0.00 0.00 0.00 37 1010.5
20260507121504 22 340 14.5 19.3 0.00 0.00 0.00 40 1010.3
20260507121003 22 25 12.9 19.3 0.00 0.00 0.00 40 1010.7
20260507120503 22 3 12.9 17.7 0.00 0.00 0.00 42 1010.5
20260507120004 22 323 17.7 25.7 0.00 0.00 0.00 42 1010.2
20260507115504 21 323 20.9 25.7 0.00 0.00 0.00 43 1010.4
20260507115215 21 332 19.3 25.7 0.00 0.00 0.00 43 1010.3
20260507114713 21 330 17.7 20.9 0.00 0.00 0.00 46 1010.3
20260507114216 21 324 19.3 25.7 0.00 0.00 0.00 57 1010.3
20260507113503 21 316 19.3 25.7 0.00 0.00 0.00 54 1010.2
20260507113004 21 318 16.1 20.9 0.00 0.00 0.00 53 1010.0
20260507112503 22 313 11.3 14.5 0.00 0.00 0.00 52 1010.0
20260507112003 22 316 11.3 14.5 0.00 0.00 0.00 52 1010.2
20260507111504 22 315 11.3 14.5 0.00 0.00 0.00 51 1010.3
20260507111003 22 259 8.0 14.5 0.00 0.00 0.00 51 1010.5
20260507110503 22 251 8.0 11.3 0.00 0.00 0.00 54 1010.5
20260507110004 22 271 8.0 11.3 0.00 0.00 0.00 54 1010.4
20260507105713 21 278 8.0 11.3 0.00 0.00 0.00 54 1010.6
20260507105216 21 294 9.7 12.9 0.00 0.00 0.00 54 1010.8
20260507104503 21 308 11.3 14.5 0.00 0.00 0.00 61 1010.8
20260507104004 21 300 12.9 17.7 0.00 0.00 0.00 63 1011.0
20260507103504 21 316 14.5 19.3 0.00 0.00 0.00 63 1011.2
20260507103004 21 327 14.5 24.1 0.00 0.00 0.00 62 1011.1
20260507102503 22 332 12.9 24.1 0.00 0.00 0.00 60 1011.1
20260507102214 22 336 12.9 24.1 0.00 0.00 0.00 60 1011.2
20260507101503 22 341 8.0 12.9 0.00 0.00 0.00 53 1011.0
20260507101215 22 310 9.7 12.9 0.00 0.00 0.00 57 1011.3
20260507100503 21 280 11.3 11.3 0.00 0.00 0.00 65 1010.7
20260507100004 21 298 11.3 12.9 0.00 0.00 0.00 65 1011.0
20260507095503 20 313 12.9 19.3 0.00 0.00 0.00 69 1011.0
20260507095217 20 324 14.5 20.9 0.00 0.00 0.00 70 1011.2
20260507094503 20 326 17.7 20.9 0.00 0.00 0.00 70 1011.3
20260507094004 20 324 19.3 24.1 0.00 0.00 0.00 70 1011.3
20260507093503 20 329 17.7 24.1 0.00 0.00 0.00 70 1011.1
20260507093003 21 320 16.1 17.7 0.00 0.00 0.00 68 1011.3
20260507092504 21 288 16.1 20.9 0.00 0.00 0.00 65 1011.1
20260507092003 21 279 12.9 20.9 0.00 0.00 0.00 60 1011.2
20260507091504 21 298 11.3 12.9 0.00 0.00 0.00 57 1011.4
20260507091003 21 314 9.7 12.9 0.00 0.00 0.00 56 1011.3
20260507090503 21 311 8.0 9.7 0.00 0.00 0.00 58 1011.3
20260507090004 21 314 9.7 12.9 0.00 0.00 0.00 62 1011.2
20260507085503 21 315 12.9 17.7 0.00 0.00 0.00 63 1011.1
20260507085217 21 308 12.9 17.7 0.00 0.00 0.00 64 1011.4
20260507084504 21 292 11.3 14.5 0.00 0.00 0.00 62 1011.7
20260507084004 21 306 11.3 14.5 0.00 0.00 0.00 63 1011.5
20260507083503 20 318 11.3 14.5 0.00 0.00 0.00 63 1011.6
20260507083005 20 318 12.9 14.5 0.00 0.00 0.00 66 1011.4
20260507082503 21 330 11.3 14.5 0.00 0.00 0.00 64 1011.5
20260507082215 21 338 11.3 14.5 0.00 0.00 0.00 64 1011.4
20260507081504 21 338 11.3 16.1 0.00 0.00 0.00 66 1011.5
20260507081004 21 343 9.7 16.1 0.00 0.00 0.00 65 1011.5
20260507080503 21 360 6.4 9.7 0.00 0.00 0.00 63 1011.9
20260507080005 21 336 8.0 9.7 0.00 0.00 0.00 63 1011.6
20260507075715 21 328 8.0 9.7 0.00 0.00 0.00 63 1011.8
20260507075003 21 335 9.7 9.7 0.00 0.00 0.00 64 1012.1
20260507074716 20 335 8.0 9.7 0.00 0.00 0.00 63 1012.0
20260507074003 20 306 6.4 9.7 0.00 0.00 0.00 67 1012.1
20260507073503 20 318 4.8 9.7 0.00 0.00 0.00 66 1012.1
20260507073004 20 350 4.8 6.4 0.00 0.00 0.00 68 1012.1
20260507072504 20 342 6.4 6.4 0.00 0.00 0.00 68 1012.1
20260507072006 20 333 4.8 6.4 0.00 0.00 0.00 67 1011.8
20260507071714 21 334 3.2 4.8 0.00 0.00 0.00 67 1011.7
20260507071003 20 343 3.2 4.8 0.00 0.00 0.00 66 1011.8
20260507070506 20 354 3.2 11.3 0.00 0.00 0.00 68 1012.0
20260507070217 20 51 4.8 11.3 0.00 0.00 0.00 69 1012.0
20260507065504 20 64 8.0 11.3 0.00 0.00 0.00 70 1011.8
20260507065004 19 57 8.0 9.7 0.00 0.00 0.00 71 1012.0
20260507064716 19 33 6.4 9.7 0.00 0.00 0.00 71 1011.9
20260507064003 19 66 6.4 9.7 0.00 0.00 0.00 73 1012.0
20260507063503 19 42 6.4 9.7 0.00 0.00 0.00 73 1012.0